103  
ASUS46 KPDT 182110  
RWRPDT  
PENDLETON REGIONAL WEATHER ROUNDUP  
NATIONAL WEATHER SERVICE PENDLETON OREGON  
200 PM PDT FRI APR 18 2014  
 
NOTE: FAIR INDICATES FEW OR NO CLOUDS BELOW 12,000 FEET WITH NO  
SIGNIFICANT WEATHER AND/OR S TO VISIBILITY
.  
 
# INDICATES UNOFFICIAL STATION AND DATA  
 
WAZ520-182210-  
EAST SLOPES OF WASHINGTON CASCADES  
 
CITY SKY/WX TMP DP RH WIND PRES REMARKS
 
#BUMPING DAM N/A 41 N/A N/A S7 N/A  
#CLE ELUM HS N/A 46 29 51 W7 29.99S  
#CLE ELUM 2NW N/A 46 28 49 SW3 N/A  
#CLE ELUM LAKE N/A 44 32 62 NW2 30.06S  
#CLIFFDEL 2NW N/A 47 24 40 N6 N/A  
#EASTON DOT N/A 43 28 55 NE5 N/A  
#GLENWOOD N/A 52 34 50 SW5 30.06F  
#MANASTASH CYN N/A 50 23 34 CALM 29.98R  
#NELSON N/A 48 33 56 S2 30.07S  
#NELSON 3SW N/A 44 30 58 CALM 30.27S  
#NILE N/A 51 28 41 W6 29.35S  
#PEOH POINT N/A 39 27 62 W7G29 N/A  
#RONALD 2NW N/A 45 33 63 W3 29.90S  
#SOUTH BLEWITT N/A 50 26 39 CALM N/A  
#TEANAWAY 4NE N/A 48 31 51 SW6 N/A  
#TROUT LAKE HS N/A 53 32 45 W5 N/A  
#TROUT LAKE 1NE N/A 50 34 54 NW7 30.09F  

 
 
WAZ521-182210-  
SIMCOE HIGHLANDS  
 
CITY SKY/WX TMP DP RH WIND PRES REMARKS
 
#BICKLETON HS N/A 45 23 41 W13 30.03S WCI 39  
#SATUS PASS DOT N/A 43 22 43 CALM N/A  
#CENTERVILLE 4W N/A 53 34 48 W12 29.82F  
#CENTERVILLE 1SWN/A 49 34 56 W14 30.05F WCI 44  
#GOLDENDALE 1NE N/A 51 26 37 SW5 N/A  
#GOLDENDALE 1S N/A 51 37 59 W3 28.22F  
#GOLDENDALE 5WNWN/A 51 34 52 SW12 30.06F  
#GOODNOE HILLS N/A 54 36 50 W18 29.99F  
#LYLE 6NE N/A 50 35 56 SW7 30.08F  

 
 
WAZ026-182210-  
KITTITAS VALLEY  
 
CITY SKY/WX TMP DP RH WIND PRES REMARKS
 
ELLENSBURG AP PTCLDY 56 28 34 NW29G37 30.02S  
#ELLENSBURG CWU N/A 52 28 39 NW22 29.98F  
#ELLENSBURG 3NE N/A 50 30 46 W14G24 30.02S  
#ELLENSBURG N/A 53 27 36 NW13 N/A  
#ELLENSBURG 1E N/A 54 27 35 NW5 N/A  
#KITTITAS 4N N/A 52 32 46 W14 30.17R  
#KITTITAS 3S N/A 53 30 41 NW16G26 30.00S  
#RYEGRASS DOT N/A 47 22 37 W30G39 N/A WCI 38  
#THORP 6N N/A 46 30 53 W24G36 30.07R WCI 38  

 
 
WAZ027-182210-  
YAKIMA VALLEY  
 
CITY SKY/WX TMP DP RH WIND PRES REMARKS
 
YAKIMA AIRPORT PTCLDY 58 25 28 SW9 30.02S  
YAKIMA-VAGABOND PTCLDY 56 23 28 VRB6 30.01F  
#COWICHE 1N N/A 52 30 43 SW7 30.15S  
#DONALD 2NE N/A 59 21 23 S5 30.33F  
#GRANDVIEW N/A 59 23 25 W3 30.04F  
#MABTON N/A 59 28 30 W8 30.02R  
#MOXEE 2E N/A 57 5 12 NW3 29.93R  
#NACHES 2SW N/A 53 31 43 SW7 30.00S  
#TERRACE HTS N/A 57 27 31 N1 29.99S  
#TOPPENISH N/A 57 30 35 W14 29.94F  
#WAPATO 4NE N/A 59 21 23 S5 30.33F  
#WEST VALLEY N/A 55 26 32 NW1 30.04S  
#WHITE SWAN 5E N/A 56 33 42 SW18G31 30.03S  
#WILEY CITY 3W N/A 54 17 23 NW1 30.02R  

 
 
WAZ028-182210-  
LOWER COLUMBIA BASIN...WASHINGTON  
 
CITY SKY/WX TMP DP RH WIND PRES REMARKS
 
HANFORD MOCLDY 62 18 18 SW14G26 30.00S  
PASCO PTCLDY 63 32 31 SW17G25 30.03F  
PROSSER AWOS N/A 61 25 25 W9 30.05F  
RICHLAND AWOS PTCLDY 63 19 18 SW15 30.03S  
#BASIN CITY 5SW N/A 62 30 30 S12 30.01S  
#BENTON CITY N/A 59 23 25 W14G24 29.93S  
#CONNELL 5N N/A 58 27 30 W12 30.00S  
#CONNELL 5NW N/A 58 31 36 W9 29.97S  
#ELTOPIA N/A 63 28 26 SW6 29.99S  
#ELTOPIA 6NW N/A 59 27 29 W10G26 28.97F  
#KENNEWICK 3S N/A 59 35 40 NW5 30.04S  
#PASCO-BROADMOORN/A 64 26 23 S8 29.92F  
#PATERSON N/A 57 35 43 SW17G25 30.03F  
#PROSSER DOT N/A 60 19 20 W7 N/A  
#PROSSER N/A 59 21 23 N8 30.02F  
#SAGEMOOR 2W N/A 58 28 32 W14 29.88S  
#TOUCHET 2S N/A 59 38 45 SW10 30.03S  
#WEST PASCO N/A 64 39 40 SE6 30.02S  

 
 
WAZ029-182210-  
FOOTHILLS OF THE BLUES...WASHINGTON  
 
CITY SKY/WX TMP DP RH WIND PRES REMARKS
 
WALLA WALLA AP PTCLDY 56 32 40 SW15 30.06S  
#COLLEGE PLACE N/A 62 29 28 SW8 30.07S  
#LOWDEN 2SE N/A 59 32 36 W14 30.01F  
#PLEASANT VIEW 1N/A 55 33 43 S15G26 30.07S  
#PRESCOTT N/A 56 32 40 SW7 30.04F  
#SUDBURY N/A 60 N/A N/A SW8 N/A  
#WHITMAN COLLEGEN/A 55 32 41 W8 30.11S  
#WAITSBURG 8N N/A 52 20 28 S15 29.88S  
#WALLA WALLA 5E N/A 56 35 45 S14 N/A  
#WHITMAN MISSIONN/A 58 34 40 W8 30.06F  

 
 
WAZ030-182210-  
BLUE MOUNTAINS...WASHINGTON  
 
CITY SKY/WX TMP DP RH WIND PRES REMARKS
 

 
 
ORZ009-041-WAZ024-182210-  
COLUMBIA RIVER GORGE  
 
CITY SKY/WX TMP DP RH WIND PRES REMARKS
 
HOOD RIVER AP MOCLDY 55 34 45 W9 30.10F  
THE DALLES AP MOCLDY 60 33 36 NW18G24 30.08F  
#ARLINGTON AIRPON/A 55 33 43 W20 25.32R  
#ARLINGTON HS N/A 57 32 38 NW13 29.99F  
#CELILO DOT N/A 59 30 33 SW7 N/A  
#MARYHILL N/A 55 33 43 N6 N/A  
#MARYHILL 2W N/A 56 32 40 SW2 N/A  
#MOSIER 1S N/A 56 29 35 N8 30.15S  
#MURDOCK N/A 57 37 47 W16 30.10F  
#RUFUS DOT N/A 57 29 34 NW10 N/A  
 

 
 
ORZ510-182210-  
NORTH CENTRAL OREGON  
 
CITY SKY/WX TMP DP RH WIND PRES REMARKS
 
#CHENOWITH 1W N/A 48 34 58 NW20 N/A WCI 41  
#COW CYN RST AREN/A 50 11 20 SW2 N/A  
#GRASS VALLEY N/A 49 32 52 NW5 N/A  
#GRASS VALLEY 1SN/A 53 33 46 NW3 30.09F  
#KENT DOT N/A 51 19 28 W9 N/A  
#MAUPIN SCHOOL N/A 60 28 29 W2 30.09F  
#SHANIKO 5WSW N/A 50 14 23 NW6 N/A  
#SHANIKO 4NW N/A 48 20 33 NW3 30.05  
#TYGH VALLEY 2NEN/A 57 29 34 SW5 30.06F  
#WAPANITIA AIRPON/A 56 29 35 CALM 30.08F  
#WASCO DOT N/A 54 29 38 W15 N/A  
#WASCO 5NE N/A 50 34 54 W3 30.09F  

 
 
ORZ511-182210-  
CENTRAL OREGON  
 
CITY SKY/WX TMP DP RH WIND PRES REMARKS
 
BEND AIRPORT SUNNY 54 10 17 NE7 30.03F  
MADRAS AIRPORT PTCLDY 54 18 24 CALM 30.07F  
REDMOND AIRPORT PTCLDY 55 10 16 NE6 30.03F  
#BEND 6E N/A 54 9 16 CALM 29.99F  
#BEND 1SW N/A 62 -10 5 S1 N/A  
#BEND-AWBREY N/A 56 17 21 SW2 30.06F  
#BEND-KIM LN N/A 56 21 25 E1 30.00S  
#CROOKED RVR RANN/A 55 22 27 NE1 30.05F  
#CULVER N/A 56 18 22 N2 30.01F  
#LAKE BILLY CHINN/A 56 -2 9 CALM 30.09F  
#POWELL BUTTE N/A 60 33 36 NW1 29.68S  
#PRINEVILLE AIR N/A 52 20 28 N9 30.03S  
#PRINEVILLE 3N N/A 54 28 36 CALM 30.00F  
#WARM SPRINGS N/A 60 31 33 W1 30.03F  
 
 
ORZ509-182210-  
EAST SLOPES OF OREGON CASCADES  
 
CITY SKY/WX TMP DP RH WIND PRES REMARKS
 
#BLUE BOX PASS N/A 44 -6 12 W2 N/A  
#CAMP SHERMAN N/A 62 19 19 W2 30.01F  
#LA PINE DOT N/A 59 8 13 W3 N/A  
#LA PINE 4NW N/A 55 22 27 CALM 30.08F  
#LAVA BUTTE DOT N/A 57 20 23 N1 N/A  
#SISTERS AIRPOR N/A 55 26 32 E6 30.03F  
#SISTERS ODOT N/A 55 N/A N/A CALM N/A  
#SISTERS 3N N/A 58 23 26 E6 30.04F  
#SUNRIVER N/A 58 16 19 SW2 29.92F  
#SUNRIVER AP N/A 56 18 22 S3 30.01F  
#SUTTLE LK DOT N/A 52 19 27 W21G30 N/A  
#TUMALO 3W N/A 54 18 24 E2 29.94F  
#WANOGA BUTTE D N/A 46 9 22 W7 N/A  
 

 
 
ORZ044-182210-  
LOWER COLUMBIA BASIN...OREGON  
 
CITY SKY/WX TMP DP RH WIND PRES REMARKS
 
HERMISTON PTCLDY 61 33 35 W16G32 30.05F  
#BOARDMAN SCHOOLN/A 58 32 37 W3 30.05F  
#BOARDMAN 3W N/A 60 37 42 SW24 29.79S  
#BOARDMAN 8SW N/A 55 35 47 W18 30.06S  
#IONE SCHOOL N/A 56 34 43 W9 30.04S  
#IRRIGON 4NW N/A 59 36 42 SW20G30 N/A  
#UMATILLA SCHOOLN/A 58 39 49 W16G26 30.07  
#UMATILLA N/A 59 31 34 SW15G30 30.02F  

 
 
ORZ507-182210-  
NORTHERN FOOTHILLS OF THE BLUES  
 
CITY SKY/WX TMP DP RH WIND PRES REMARKS
 
PENDLETON AIRPT PTCLDY 58 27 30 W22G29 30.04F  
#ADAMS 3WNW N/A 55 33 43 W10 30.06R  
#ATHENA N/A 53 31 43 SW8 30.08F  
#HELIX SCHOOL N/A 54 29 38 SW15 30.05S  
#HELIX 3N N/A 52 30 43 SW17G26 30.01R  
#M-F FERNDALE N/A 61 34 36 CALM 30.04S  
#M-F GROVE ELEM N/A 56 29 35 W7 30.04F  
#M-FREEWATER 5SEN/A 56 31 38 SW12 30.05F  
#PDT AQUATIC CTRN/A 60 32 35 W9 30.04S  
#PENDLETON DNTN N/A 62 33 34 W3 30.01S  
#PDT SUNRIDGE N/A 58 32 37 W10 30.05F  
#PILOT ROCK N/A 57 28 33 W2 30.05F  
#TUTUILLA N/A 56 28 34 W15 29.99S  
#UMAPINE 2E N/A 58 33 39 W7 29.98F  
#WESTON SCHOOL N/A 51 22 32 NW13 30.09F  
 

 
 
ORZ508-182210-  
SOUTHERN FOOTHILLS OF THE BLUES  
 
CITY SKY/WX TMP DP RH WIND PRES REMARKS
 
LEXINGTON PTCLDY 57 34 42 NW14 30.07S  
#AJAX N/A 52 30 43 N9 30.07F  
#CONDON SCHOOL N/A 50 25 37 W6 30.01F  
#CONDON 5W N/A 47 23 38 W10 30.01F  
#FOSSIL SCHOOL N/A 52 22 31 W2 30.02S  
#HEPPNER 4NE N/A 50 27 41 W10 30.08F  
#LEXINGTON 2SE N/A 57 27 31 W14 30.03S  
#MIKKALO N/A 55 29 37 NW13 30.05F  
#OLEX 4N N/A 53 34 48 W16G26 30.05F  
#RUGGS 5NE N/A 52 26 36 W10 30.27F  
#RUGGS 2SW N/A 51 21 30 NW10 30.13S  
 

 
 
ORZ502-503-182210-  
BLUE MOUNTAINS  
 
CITY SKY/WX TMP DP RH WIND PRES REMARKS
 
MEACHAM PTCLDY 48 24 39 VRB5 30.04R  
#BATTLE MTN DOT N/A 50 20 30 NW2 N/A  
#HARDMAN 10S N/A 49 20 31 N2 30.08S  
#HEPPNER 15SE N/A 47 20 34 S2 29.94S  
#LADD CYN SMT N/A 51 14 22 W12 N/A  
#LADD CREEK ODOTN/A 55 21 26 SW7 N/A  
#LONG CREEK HS N/A 49 23 36 N5 29.99S  
#N POWDER DOT N/A 55 23 29 NW13 N/A  
#TOLLGATE N/A 37 28 70 SW8 29.96S  
#TROY SCHOOL N/A 57 28 33 NW5 29.87S  
#UKIAH N/A 52 31 44 SE2 30.08F  
#WESTON 4E N/A 47 30 51 SW9 30.03S  

 
 
ORZ505-182210-  
JOHN DAY BASIN  
 
CITY SKY/WX TMP DP RH WIND PRES REMARKS
 
JOHN DAY PTCLDY 55 12 18 W10 30.04F  
#JOHN DAY KJDY N/A 56 17 21 NW6 29.99F  
#DAYVILLE SCHOOLN/A 57 23 27 E1 30.01F  
#MONUMENT HS N/A 58 15 18 W2 29.99F  
#MT. VERNON 5SE N/A 50 14 23 W3 29.99S  

 
 
ORZ506-182210-  
OCHOCO AND JOHN DAY HIGHLANDS  
 
CITY SKY/WX TMP DP RH WIND PRES REMARKS
 
#ANTONE N/A 32 N/A N/A CALM N/A  
#BUCK CREEK DOT N/A 53 29 39 E5 N/A  
#HORSE RIDGE DO N/A 53 13 20 NW7 N/A  
#KEYES SMT DOT N/A 48 16 27 NW10 N/A  
#PAULINA SCHOOL N/A 58 15 18 NE1 30.02F  
#PINE MTN OBS N/A 45 18 33 CALM N/A  
#PRAIRIE CITY N/A 56 27 33 SW5 29.99F  
#SENECA 9NW N/A 51 17 26 SW3 30.01S  

 
 
ORZ049-182210-  
GRANDE RONDE VALLEY  
 
CITY SKY/WX TMP DP RH WIND PRES REMARKS
 
LA GRANDE PTCLDY 55 25 31 W9 30.01F  
#COVE N/A 53 28 38 NW5 29.96S  
#COVE SCHOOL N/A 54 24 31 W1 30.01S  
#COVE 6NW N/A 52 24 33 CALM 30.08S  
#ELGIN 3N N/A 53 23 31 S12 29.76S  
#ELGIN 1E N/A 54 27 35 S3 N/A  
#IMBLER SCHOOL N/A 52 23 32 CALM 29.99S  
#ISLAND CITY 4N N/A 55 34 45 NW2 29.98S  
#LADD CYN DOT N/A 54 19 25 W9 N/A  
#LA GRANDE ELEM N/A 54 21 27 NW12 30.00S  
#UNION 1S N/A 56 29 35 N7 29.94F  

 
 
ORZ050-182210-  
WALLOWA COUNTY  
 
CITY SKY/WX TMP DP RH WIND PRES REMARKS
 
#ENTERPRISE HS N/A 51 21 30 N6 30.00F  
#IMNAHA SCHOOL N/A 58 13 17 E7 29.90F  
#JOSEPH 3N N/A 50 23 34 N3 30.03S  
#LOSTINE N/A 51 21 30 W3 29.83R  
#MT HOWARD 8000 N/A 30 7 37 W7 29.96S  
#PROMISE 1S N/A 45 23 41 E14 30.14S WCI 39  
#SHEEP RDG 7000 N/A 30 12 46 CALM 30.11R  
#WALLOWA SCHOOL N/A 51 20 29 N5 30.96S  
 

 
 
CLICK HERE TO GO TO PREVIOUS BULLETINS.

The Nexlab OR Page
The Nexlab WA Page Main Text Page